Tracking 18852 objects as of 23-Nov-2017
HD Live streaming from Space Station
objects crossing your sky now

FENGYUN 1C DEB

Track FENGYUN 1C DEB now!
10-day predictions


NORAD ID: 33674
Int'l Code: 1999-025DFK
Perigee: 847.6 km
Apogee: 1,182.3 km
Inclination: 98.6 °
Period: 105.3 minutes
Semi major axis: 7385 km
RCS: 0.0036 m2 (small)
Launch date: May 10, 1999
Source: People's Republic of China (PRC)
Launch site: Taiyaun Space Center, China (TSC)

Note: This is SATELLITE DEBRIS
aabbcc
Your satellite tracking list
Your tracking list is empty




NASA's NSSDC Master Catalog

Two Line Element Set (TLE):
1 33674U 99025DFK 17326.80510272  .00000731  00000-0  75896-3 0  9991
2 33674  98.6116 278.6095 0226581 151.4972 209.8787 13.67707316481607
Source of the keplerian elements: AFSPC